Location: Nairn
(57.5833°N, 3.8667°W)
Time: 03:01:12
(UTC+00:00)

Cosmos 1544 - Pass Details

Date: 07 August 2020
Orbit: 471 x 491 km, 82.5° (Epoch: 25 September)

Event Time Altitude Azimuth Distance (km) Brightness Sun altitude
Exits shadow 00:44:34 35° 184° (S) 799 3.6 -15.9°
Maximum altitude 00:46:00 81° 102° (ESE) 499 3.0 -15.9°
Drops below altitude 10° 00:49:42 10° 14° (NNE) 1,690 7.2 -15.8°
Sets 00:51:49 0° 14° (NNE) 2,580 8.6 -15.8°
